Regional Weather Roundup
Issued by NWS

Home | Current Version | Previous Version | Text Only | Print | Product List | Glossary Off
Versions: 1 2 3 4 5 6 7 8 9 10 11 12 13 14 15 16 17 18 19 20 21 22 23 24 25 26 27 28 29 30 31 32 33 34 35 36 37 38 39 40 41 42 43 44 45 46 47 48 49 50

000
ASUS43 KDMX 011707
RWRIA

WEATHER ROUNDUP FOR IOWA
NATIONAL WEATHER SERVICE DES MOINES IA
1100 AM CST SUN MAR 01 2015

NOTE: "FAIR" INDICATES FEW OR NO CLOUDS BELOW 12,000 FEET WITH NO
SIGNIFICANT WEATHER AND/OR OBSTRUCTIONS TO VISIBILITY.

* - THESE STATIONS ARE NOT NWS STATIONS...THUS NOT UNDER NWS
QUALITY CONTROL.  THEY ALSO DO NOT REPORT WEATHER SUCH
AS PRECIPITATION OR FOG.

IAZ001>003-012>014-020>022-031>034-043>046-011800-
   NORTHWEST IOWA

CITY           SKY/WX    TMP DP  RH WIND       PRES   REMARKS
CARROLL *      MOSUNNY   25  14  63 NW12      30.35S WCI  14
CHEROKEE *     PTSUNNY   23  14  68 W3        30.36R
DENISON *      SUNNY     25  14  63 N5        30.35S WCI  19
LE MARS *      PTSUNNY   25  18  74 W7G14     30.37R WCI  17
ORANGE CITY *  SUNNY     25  14  63 W12       30.34R WCI  14
SHELDON *      PTSUNNY   23  12  63 W14       30.32S WCI  11
SIOUX CITY     CLOUDY    27  15  61 NW8       30.38S WCI  19
SPENCER        PTSUNNY   24  12  60 W12       30.33R WCI  13
STORM LAKE *   MOSUNNY   21  12  68 NW9       30.34S WCI  11
$$

IAZ055>058-069>071-079>083-090>094-011800-
   SOUTHWEST IOWA

CITY           SKY/WX    TMP DP  RH WIND       PRES   REMARKS
ATLANTIC *     SUNNY     25  18  74 NW9       30.37S WCI  15
AUDUBON *      SUNNY     27  18  69 NW5       30.36S WCI  21
CLARINDA *     MOSUNNY   28  21  74 W7G15     30.41R WCI  21
COUNCIL BLFS * SUNNY     27  18  69 NW7       30.36S WCI  19
CRESTON *      SUNNY     27  19  74 NW8       30.36S WCI  18
HARLAN  *      SUNNY     25  19  80 NW8       30.40S WCI  16
LAMONI         CLOUDY    24  17  74 W9        30.37S WCI  14
RED OAK *      MOSUNNY   28  21  74 W7        30.38S WCI  21
SHENANDOAH *   SUNNY     28  19  69 W9        30.40S WCI  20
$$

IAZ047>049-059>061-072>074-084-011800-
   CENTRAL IOWA

CITY           SKY/WX    TMP DP  RH WIND       PRES   REMARKS
AMES           MOSUNNY   24  16  71 NW12      30.36S WCI  13
ANKENY *       SUNNY     27  18  69 W12       30.37S WCI  16
CHARITON *     CLOUDY    25  18  74 W8        30.37S WCI  16
DES MOINES     MOSUNNY   28  17  63 SW8       30.36F WCI  20
GRINNELL*      MOSUNNY   25  18  74 W8        30.35F WCI  16
KNOXVILLE *    CLOUDY    25  16  68 W10       30.36F WCI  15
MARSHALLTOWN   MOSUNNY   24  17  74 W14       30.33F WCI  12
PELLA *        CLOUDY    28  21  74 W8        30.38F WCI  20
PERRY *          N/A     27  19  74 NW7       30.36S WCI  19
$$

IAZ004>006-015-016-023>025-035-036-011800-
   NORTH CENTRAL IOWA

CITY           SKY/WX    TMP DP  RH WIND       PRES   REMARKS
ALGONA *       SUNNY     21  10  63 NW16      30.33S WCI   7
CLARION *      SUNNY     19  18  93 NW10      30.33R WCI   8
ESTHERVILLE    PTSUNNY   22  10  60 NW15      30.31R WCI   9
FORT DODGE *   PTSUNNY   21  16  79 NW7       30.36R WCI  13
MASON CITY     PTSUNNY   17  13  84 W10       30.32S WCI   5
FOREST CITY *  SUNNY     19  14  79 NW10      30.31R WCI   8
IOWA FALLS *   PTSUNNY   23  18  80 W14       30.34S HAZE    WCI  11
$$

IAZ007>011-017>019-026>030-037>042-050>054-066-011800-
   NORTHEAST IOWA

CITY           SKY/WX    TMP DP  RH WIND       PRES   REMARKS
CEDAR RAPIDS   PTSUNNY   21  17  84 SW7       30.35F WCI  12
CHARLES CITY * MOSUNNY   19  16  86 W10       30.31F WCI   8
CLINTON *      MOSUNNY   16  14  93 CALM      30.41R
DECORAH *      PTSUNNY   19  14  79 W10       30.28F WCI   8
DUBUQUE        MOSUNNY   19  14  81 SW10      30.33R HAZE    WCI   7
MONTICELLO *   MOSUNNY   21  18  86 SW8       30.36S WCI  12
OELWEIN *      SUNNY     19  18  93 W14       30.32F WCI   6
WATERLOO       SUNNY     20  15  81 W13       30.33F WCI   7
$$

IAZ064-065-067-068-078-011800-
   EAST CENTRAL IOWA

CITY           SKY/WX    TMP DP  RH WIND       PRES   REMARKS
DAVENPORT      PTSUNNY   20  14  77 W8        30.38S WCI  10
IOWA CITY      CLOUDY    21  17  84 W7        30.41S FOG     WCI  12
MT. PLEASANT * CLOUDY    25  18  74 SW3       30.40R
MUSCATINE *    CLOUDY    21  19  93 CALM      30.41S
QUAD CITIES    CLOUDY    24  15  68 NW7       30.38S WCI  16
$$

IAZ062-063-075>077-085>089-095>099-011800-
   SOUTHEAST IOWA

CITY           SKY/WX    TMP DP  RH WIND       PRES   REMARKS
BURLINGTON     CLOUDY    22  19  89 CALM      30.38F
FAIRFIELD *    CLOUDY    23  19  86 W8        30.39S WCI  14
FORT MADISON * CLOUDY    21  18  86 CALM      30.40R
KEOKUK *       PTSUNNY   25  19  80 N3        30.39S
OSKALOOSA *    CLOUDY    23  19  86 W7        30.38F WCI  15
CENTERVILLE *  MOSUNNY   25  19  80 W7        30.38F WCI  17
OTTUMWA        CLOUDY    24  18  77 W6        30.38F WCI  17
WASHINGTON *   CLOUDY    21  21 100 W6        30.39S WCI  14
$$

ABBREVIATIONS USED IN REMARKS
   TC - TEMPERATURES IN CELSIUS
  WCI - WIND CHILL INDEX
   HX - HEAT INDEX
  VSB - VISIBILITY
$$



USA.gov is the U.S. government's official web portal to all federal, state and local government web resources and services.